���t,����,�O�C���x,�����t���O,�O�C���Ύ��x,�����t���O,���ԋ�C���x,�����t���O,���ԑ��Ύ��x,�����t���O,�g�C���^���N����,�����t���O,���֋�C���x,�����t���O,��󒲎����x,�����t���O
2004/2/1,0:00,6.7 ,0,73.0 ,0,20.2 ,0,52.7 ,0,11.1 ,0,13.3 ,0,12.8 ,0
2004/2/1,0:15,6.5 ,0,73.0 ,0,19.8 ,0,52.8 ,0,11.2 ,0,13.3 ,0,12.7 ,0
2004/2/1,0:30,6.2 ,0,73.0 ,0,19.5 ,0,52.9 ,0,11.3 ,0,13.3 ,0,12.7 ,0
2004/2/1,0:45,6.1 ,0,75.0 ,0,19.2 ,0,53.0 ,0,11.4 ,0,13.3 ,0,12.6 ,0
2004/2/1,1:00,6.4 ,0,75.0 ,0,19.0 ,0,53.2 ,0,11.5 ,0,13.2 ,0,12.5 ,0
2004/2/1,1:15,6.4 ,0,74.0 ,0,18.7 ,0,53.2 ,0,11.6 ,0,13.2 ,0,12.4 ,0
2004/2/1,1:30,6.5 ,0,73.0 ,0,18.4 ,0,53.4 ,0,11.7 ,0,13.2 ,0,12.3 ,0
2004/2/1,1:45,6.4 ,0,73.0 ,0,18.2 ,0,53.5 ,0,11.8 ,0,13.1 ,0,12.2 ,0
2004/2/1,2:00,6.0 ,0,74.0 ,0,18.0 ,0,53.6 ,0,11.9 ,0,13.1 ,0,12.2 ,0
2004/2/1,2:15,5.6 ,0,75.0 ,0,17.8 ,0,53.7 ,0,12.0 ,0,13.1 ,0,12.1 ,0
2004/2/1,2:30,5.3 ,0,75.0 ,0,17.5 ,0,53.8 ,0,12.1 ,0,13.0 ,0,12.0 ,0
2004/2/1,2:45,5.3 ,0,75.0 ,0,17.3 ,0,53.8 ,0,12.2 ,0,13.0 ,0,11.9 ,0
2004/2/1,3:00,5.4 ,0,74.0 ,0,17.1 ,0,53.8 ,0,12.3 ,0,12.9 ,0,11.8 ,0
2004/2/1,3:15,5.4 ,0,74.0 ,0,16.9 ,0,54.0 ,0,12.4 ,0,12.9 ,0,11.8 ,0
2004/2/1,3:30,5.0 ,0,75.0 ,0,16.7 ,0,54.1 ,0,12.5 ,0,12.9 ,0,11.7 ,0
2004/2/1,3:45,5.2 ,0,75.0 ,0,16.5 ,0,54.1 ,0,12.6 ,0,12.8 ,0,11.6 ,0
2004/2/1,4:00,5.0 ,0,73.0 ,0,16.3 ,0,54.3 ,0,12.6 ,0,12.8 ,0,11.5 ,0
2004/2/1,4:15,4.8 ,0,75.0 ,0,16.0 ,0,53.6 ,0,9.2 ,0,12.7 ,0,11.5 ,0
2004/2/1,4:30,5.2 ,0,72.0 ,0,15.9 ,0,53.8 ,0,9.3 ,0,12.7 ,0,11.5 ,0
2004/2/1,4:45,5.2 ,0,72.0 ,0,15.7 ,0,53.9 ,0,9.4 ,0,12.7 ,0,11.4 ,0
2004/2/1,5:00,5.2 ,0,73.0 ,0,15.5 ,0,54.1 ,0,9.5 ,0,12.6 ,0,11.3 ,0
2004/2/1,5:15,5.2 ,0,72.0 ,0,15.4 ,0,54.2 ,0,9.5 ,0,12.6 ,0,11.2 ,0
2004/2/1,5:30,5.2 ,0,72.0 ,0,15.2 ,0,54.5 ,0,9.6 ,0,12.5 ,0,11.2 ,0
2004/2/1,5:45,5.3 ,0,71.0 ,0,15.0 ,0,54.6 ,0,9.7 ,0,12.5 ,0,11.1 ,0
2004/2/1,6:00,5.5 ,0,68.0 ,0,14.9 ,0,54.8 ,0,9.9 ,0,12.4 ,0,11.0 ,0
2004/2/1,6:15,5.3 ,0,68.0 ,0,14.7 ,0,54.9 ,0,10.0 ,0,12.4 ,0,11.0 ,0
2004/2/1,6:30,4.9 ,0,70.0 ,0,14.6 ,0,54.9 ,0,10.1 ,0,12.3 ,0,10.9 ,0
2004/2/1,6:45,4.9 ,0,71.0 ,0,14.5 ,0,55.0 ,0,10.2 ,0,12.3 ,0,10.8 ,0
2004/2/1,7:00,4.8 ,0,72.0 ,0,14.4 ,0,55.1 ,0,10.3 ,0,12.2 ,0,10.8 ,0
2004/2/1,7:15,4.8 ,0,72.0 ,0,14.2 ,0,55.2 ,0,10.4 ,0,12.2 ,0,10.7 ,0
2004/2/1,7:30,4.8 ,0,72.0 ,0,14.4 ,0,58.7 ,0,9.2 ,0,12.1 ,0,10.7 ,0
2004/2/1,7:45,5.2 ,0,69.0 ,0,14.8 ,0,62.1 ,0,9.1 ,0,12.1 ,0,10.7 ,0
2004/2/1,8:00,4.9 ,0,71.0 ,0,15.5 ,0,62.4 ,0,9.2 ,0,12.1 ,0,10.7 ,0
2004/2/1,8:15,5.0 ,0,72.0 ,0,16.1 ,0,62.4 ,0,9.3 ,0,12.1 ,0,10.8 ,0
2004/2/1,8:30,5.7 ,0,69.0 ,0,16.7 ,0,61.8 ,0,9.4 ,0,12.1 ,0,10.8 ,0
2004/2/1,8:45,7.8 ,0,61.0 ,0,17.2 ,0,61.1 ,0,9.5 ,0,12.1 ,0,10.9 ,0
2004/2/1,9:00,9.5 ,0,56.0 ,0,17.8 ,0,61.4 ,0,9.6 ,0,12.1 ,0,10.9 ,0
2004/2/1,9:15,15.1 ,0,41.0 ,0,18.2 ,0,59.4 ,0,9.7 ,0,12.1 ,0,11.0 ,0
2004/2/1,9:30,12.0 ,0,45.0 ,0,18.7 ,0,59.9 ,0,9.8 ,0,12.1 ,0,11.1 ,0
2004/2/1,9:45,13.1 ,0,46.0 ,0,19.2 ,0,59.7 ,0,9.9 ,0,12.1 ,0,11.1 ,0
2004/2/1,10:00,13.6 ,0,42.0 ,0,19.7 ,0,57.9 ,0,10.0 ,0,12.1 ,0,11.3 ,0
2004/2/1,10:15,12.9 ,0,46.0 ,0,20.0 ,0,56.2 ,0,10.1 ,0,12.2 ,0,11.4 ,0
2004/2/1,10:30,12.9 ,0,46.0 ,0,20.1 ,0,55.4 ,0,10.2 ,0,12.2 ,0,11.5 ,0
2004/2/1,10:45,13.7 ,0,44.0 ,0,20.0 ,0,54.5 ,0,10.3 ,0,12.2 ,0,11.6 ,0
2004/2/1,11:00,13.5 ,0,44.0 ,0,19.7 ,0,54.4 ,0,10.4 ,0,12.3 ,0,11.6 ,0
2004/2/1,11:15,14.5 ,0,44.0 ,0,19.6 ,0,56.4 ,0,10.6 ,0,12.3 ,0,11.8 ,0
2004/2/1,11:30,14.3 ,0,44.0 ,0,20.2 ,0,58.4 ,0,10.7 ,0,12.3 ,0,11.8 ,0
2004/2/1,11:45,14.2 ,0,48.0 ,0,20.7 ,0,58.6 ,0,10.8 ,0,12.3 ,0,11.9 ,0
2004/2/1,12:00,14.4 ,0,46.0 ,0,21.1 ,0,57.3 ,0,10.9 ,0,12.4 ,0,12.0 ,0
2004/2/1,12:15,15.1 ,0,45.0 ,0,21.3 ,0,56.1 ,0,11.0 ,0,12.4 ,0,12.2 ,0
2004/2/1,12:30,15.1 ,0,44.0 ,0,21.4 ,0,56.1 ,0,11.1 ,0,12.4 ,0,12.3 ,0
2004/2/1,12:45,16.1 ,0,42.0 ,0,21.4 ,0,54.1 ,0,11.2 ,0,12.5 ,0,12.4 ,0
2004/2/1,13:00,17.1 ,0,38.0 ,0,21.5 ,0,52.6 ,0,11.3 ,0,12.5 ,0,12.5 ,0
2004/2/1,13:15,16.2 ,0,40.0 ,0,21.5 ,0,50.8 ,0,11.4 ,0,12.6 ,0,12.6 ,0
2004/2/1,13:30,15.6 ,0,40.0 ,0,21.5 ,0,49.9 ,0,11.5 ,0,12.6 ,0,12.7 ,0
2004/2/1,13:45,15.2 ,0,43.0 ,0,21.5 ,0,49.2 ,0,11.6 ,0,12.6 ,0,12.8 ,0
2004/2/1,14:00,15.1 ,0,43.0 ,0,21.5 ,0,48.9 ,0,11.7 ,0,12.7 ,0,12.9 ,0
2004/2/1,14:15,14.9 ,0,43.0 ,0,21.5 ,0,48.3 ,0,11.8 ,0,12.7 ,0,12.9 ,0
2004/2/1,14:30,14.8 ,0,45.0 ,0,21.5 ,0,47.8 ,0,11.9 ,0,12.7 ,0,13.0 ,0
2004/2/1,14:45,14.8 ,0,46.0 ,0,21.6 ,0,47.5 ,0,12.0 ,0,12.8 ,0,13.1 ,0
2004/2/1,15:00,14.7 ,0,47.0 ,0,21.6 ,0,47.0 ,0,12.1 ,0,12.8 ,0,13.2 ,0
2004/2/1,15:15,14.5 ,0,50.0 ,0,21.4 ,0,45.8 ,0,11.8 ,0,12.8 ,0,13.2 ,0
2004/2/1,15:30,14.2 ,0,51.0 ,0,21.1 ,0,47.1 ,0,10.1 ,0,12.9 ,0,13.3 ,0
2004/2/1,15:45,14.1 ,0,50.0 ,0,20.9 ,0,47.7 ,0,10.2 ,0,12.9 ,0,13.4 ,0
2004/2/1,16:00,14.2 ,0,52.0 ,0,20.6 ,0,48.5 ,0,10.3 ,0,13.0 ,0,13.4 ,0
2004/2/1,16:15,14.0 ,0,54.0 ,0,20.4 ,0,49.0 ,0,10.4 ,0,13.0 ,0,13.5 ,0
2004/2/1,16:30,13.7 ,0,56.0 ,0,19.8 ,0,47.2 ,0,10.5 ,0,13.1 ,0,13.6 ,0
2004/2/1,16:45,13.7 ,0,56.0 ,0,19.7 ,0,48.8 ,0,10.7 ,0,13.1 ,0,13.7 ,0
2004/2/1,17:00,13.3 ,0,59.0 ,0,19.5 ,0,49.4 ,0,10.8 ,0,13.2 ,0,13.7 ,0
2004/2/1,17:15,13.2 ,0,60.0 ,0,19.4 ,0,49.8 ,0,10.9 ,0,13.2 ,0,13.7 ,0
2004/2/1,17:30,13.0 ,0,61.0 ,0,19.2 ,0,50.2 ,0,11.0 ,0,13.2 ,0,13.7 ,0
2004/2/1,17:45,12.7 ,0,65.0 ,0,19.1 ,0,51.0 ,0,11.1 ,0,13.2 ,0,13.7 ,0
2004/2/1,18:00,12.4 ,0,64.0 ,0,19.5 ,0,54.9 ,0,11.2 ,0,13.3 ,0,13.8 ,0
2004/2/1,18:15,12.2 ,0,67.0 ,0,20.0 ,0,56.1 ,0,11.3 ,0,13.3 ,0,13.8 ,0
2004/2/1,18:30,12.2 ,0,71.0 ,0,20.6 ,0,56.4 ,0,11.5 ,0,13.3 ,0,13.8 ,0
2004/2/1,18:45,12.0 ,0,74.0 ,0,21.0 ,0,56.5 ,0,11.6 ,0,13.3 ,0,13.8 ,0
2004/2/1,19:00,11.9 ,0,76.0 ,0,21.2 ,0,55.6 ,0,11.7 ,0,13.4 ,0,13.8 ,0
2004/2/1,19:15,11.8 ,0,75.0 ,0,21.3 ,0,55.7 ,0,11.8 ,0,13.4 ,0,13.8 ,0
2004/2/1,19:30,11.7 ,0,73.0 ,0,21.3 ,0,55.7 ,0,11.9 ,0,13.4 ,0,13.7 ,0
2004/2/1,19:45,11.4 ,0,78.0 ,0,21.4 ,0,55.6 ,0,12.0 ,0,13.5 ,0,13.7 ,0
2004/2/1,20:00,11.2 ,0,83.0 ,0,21.4 ,0,54.7 ,0,12.1 ,0,13.5 ,0,13.7 ,0
2004/2/1,20:15,11.1 ,0,85.0 ,0,21.4 ,0,54.8 ,0,12.2 ,0,13.5 ,0,13.7 ,0
2004/2/1,20:30,11.0 ,0,84.0 ,0,21.3 ,0,55.2 ,0,12.3 ,0,13.5 ,0,13.7 ,0
2004/2/1,20:45,10.9 ,0,83.0 ,0,21.3 ,0,55.6 ,0,12.4 ,0,13.6 ,0,13.7 ,0
2004/2/1,21:00,11.1 ,0,82.0 ,0,21.3 ,0,56.8 ,0,12.5 ,0,13.6 ,0,13.7 ,0
2004/2/1,21:15,11.1 ,0,83.0 ,0,21.4 ,0,57.6 ,0,12.6 ,0,13.6 ,0,13.7 ,0
2004/2/1,21:30,11.2 ,0,81.0 ,0,21.5 ,0,58.5 ,0,12.7 ,0,13.6 ,0,13.6 ,0
2004/2/1,21:45,11.2 ,0,82.0 ,0,21.8 ,0,58.9 ,0,12.8 ,0,13.6 ,0,13.6 ,0
2004/2/1,22:00,11.0 ,0,82.0 ,0,22.2 ,0,59.0 ,0,12.9 ,0,13.7 ,0,13.6 ,0
2004/2/1,22:15,11.0 ,0,82.0 ,0,22.5 ,0,58.5 ,0,13.0 ,0,13.7 ,0,13.6 ,0
2004/2/1,22:30,11.0 ,0,81.0 ,0,22.8 ,0,60.8 ,0,13.1 ,0,13.7 ,0,13.6 ,0
2004/2/1,22:45,11.2 ,0,80.0 ,0,22.9 ,0,59.9 ,0,13.1 ,0,13.7 ,0,13.6 ,0
2004/2/1,23:00,11.2 ,0,80.0 ,0,22.9 ,0,59.4 ,0,13.2 ,0,13.8 ,0,13.6 ,0
2004/2/1,23:15,11.2 ,0,80.0 ,0,22.9 ,0,59.3 ,0,13.3 ,0,13.8 ,0,13.6 ,0
2004/2/1,23:30,11.1 ,0,81.0 ,0,23.0 ,0,59.1 ,0,13.4 ,0,13.8 ,0,13.6 ,0
2004/2/1,23:45,10.9 ,0,85.0 ,0,23.1 ,0,59.0 ,0,13.5 ,0,13.8 ,0,13.6 ,0
2004/2/2,0:00,11.0 ,0,84.0 ,0,23.2 ,0,58.7 ,0,13.6 ,0,13.8 ,0,13.6 ,0
2004/2/2,0:15,11.0 ,0,85.0 ,0,23.3 ,0,58.5 ,0,13.6 ,0,13.9 ,0,13.6 ,0
2004/2/2,0:30,11.0 ,0,86.0 ,0,23.3 ,0,58.0 ,0,13.7 ,0,13.9 ,0,13.6 ,0
2004/2/2,0:45,10.9 ,0,87.0 ,0,23.3 ,0,57.7 ,0,13.8 ,0,13.9 ,0,13.6 ,0
2004/2/2,1:00,10.9 ,0,84.0 ,0,23.3 ,0,57.7 ,0,13.9 ,0,13.9 ,0,13.6 ,0
2004/2/2,1:15,10.7 ,0,86.0 ,0,23.2 ,0,56.2 ,0,13.9 ,0,13.9 ,0,13.6 ,0
2004/2/2,1:30,10.8 ,0,86.0 ,0,22.8 ,0,55.5 ,0,11.1 ,0,14.0 ,0,13.7 ,0
2004/2/2,1:45,10.7 ,0,87.0 ,0,22.4 ,0,55.2 ,0,11.2 ,0,14.0 ,0,13.6 ,0
2004/2/2,2:00,10.8 ,0,87.0 ,0,22.0 ,0,55.1 ,0,11.3 ,0,14.0 ,0,13.7 ,0
2004/2/2,2:15,10.9 ,0,86.0 ,0,21.7 ,0,55.2 ,0,11.4 ,0,14.0 ,0,13.6 ,0
2004/2/2,2:30,10.8 ,0,87.0 ,0,21.4 ,0,55.3 ,0,11.5 ,0,14.0 ,0,13.6 ,0
2004/2/2,2:45,10.8 ,0,87.0 ,0,21.1 ,0,55.4 ,0,11.6 ,0,14.0 ,0,13.6 ,0
2004/2/2,3:00,10.8 ,0,88.0 ,0,20.8 ,0,55.6 ,0,11.8 ,0,14.0 ,0,13.6 ,0
2004/2/2,3:15,10.8 ,0,88.0 ,0,20.5 ,0,55.8 ,0,11.8 ,0,14.0 ,0,13.6 ,0
2004/2/2,3:30,10.8 ,0,88.0 ,0,20.2 ,0,56.0 ,0,12.0 ,0,14.0 ,0,13.6 ,0
2004/2/2,3:45,10.6 ,0,89.0 ,0,20.0 ,0,56.1 ,0,12.0 ,0,14.0 ,0,13.6 ,0
2004/2/2,4:00,10.5 ,0,89.0 ,0,19.8 ,0,56.3 ,0,12.2 ,0,14.0 ,0,13.6 ,0
2004/2/2,4:15,10.5 ,0,89.0 ,0,19.6 ,0,56.4 ,0,12.2 ,0,14.0 ,0,13.6 ,0
2004/2/2,4:30,10.5 ,0,89.0 ,0,19.4 ,0,56.5 ,0,12.4 ,0,14.0 ,0,13.6 ,0
2004/2/2,4:45,10.3 ,0,91.0 ,0,19.3 ,0,56.7 ,0,12.5 ,0,14.0 ,0,13.6 ,0
2004/2/2,5:00,10.1 ,0,93.0 ,0,19.1 ,0,56.8 ,0,12.6 ,0,14.0 ,0,13.6 ,0
2004/2/2,5:15,10.3 ,0,93.0 ,0,19.0 ,0,56.8 ,0,12.7 ,0,14.0 ,0,13.5 ,0
2004/2/2,5:30,10.4 ,0,91.0 ,0,18.8 ,0,57.0 ,0,12.7 ,0,14.0 ,0,13.5 ,0
2004/2/2,5:45,10.5 ,0,90.0 ,0,18.7 ,0,57.1 ,0,12.8 ,0,14.0 ,0,13.5 ,0
2004/2/2,6:00,10.5 ,0,91.0 ,0,18.5 ,0,57.3 ,0,12.9 ,0,14.0 ,0,13.5 ,0
2004/2/2,6:15,10.5 ,0,91.0 ,0,18.4 ,0,57.5 ,0,13.0 ,0,14.0 ,0,13.5 ,0
2004/2/2,6:30,10.5 ,0,91.0 ,0,18.3 ,0,57.6 ,0,13.1 ,0,14.0 ,0,13.5 ,0
2004/2/2,6:45,10.5 ,0,91.0 ,0,18.1 ,0,57.7 ,0,13.2 ,0,14.0 ,0,13.5 ,0
2004/2/2,7:00,10.5 ,0,91.0 ,0,18.0 ,0,58.9 ,0,11.5 ,0,14.0 ,0,13.5 ,0
2004/2/2,7:15,10.4 ,0,92.0 ,0,18.5 ,0,61.7 ,0,10.8 ,0,14.0 ,0,13.6 ,0
2004/2/2,7:30,10.9 ,0,95.0 ,0,18.9 ,0,60.7 ,0,9.7 ,0,14.1 ,0,13.7 ,0
2004/2/2,7:45,11.0 ,0,91.0 ,0,18.9 ,0,59.2 ,0,9.8 ,0,14.2 ,0,13.9 ,0
2004/2/2,8:00,10.9 ,0,89.0 ,0,18.8 ,0,58.8 ,0,9.9 ,0,14.2 ,0,13.9 ,0
2004/2/2,8:15,10.7 ,0,91.0 ,0,18.7 ,0,59.1 ,0,10.0 ,0,14.2 ,0,13.9 ,0
2004/2/2,8:30,10.6 ,0,90.0 ,0,18.6 ,0,59.1 ,0,10.1 ,0,14.2 ,0,13.8 ,0
2004/2/2,8:45,10.5 ,0,89.0 ,0,18.4 ,0,59.2 ,0,10.2 ,0,14.2 ,0,13.8 ,0
2004/2/2,9:00,10.7 ,0,82.0 ,0,18.3 ,0,59.1 ,0,10.4 ,0,14.2 ,0,13.8 ,0
2004/2/2,9:15,10.8 ,0,79.0 ,0,18.2 ,0,59.1 ,0,10.5 ,0,14.2 ,0,13.7 ,0
2004/2/2,9:30,10.9 ,0,78.0 ,0,18.0 ,0,59.2 ,0,10.6 ,0,14.2 ,0,13.7 ,0
2004/2/2,9:45,11.0 ,0,79.0 ,0,17.9 ,0,59.2 ,0,10.7 ,0,14.2 ,0,13.7 ,0
2004/2/2,10:00,11.1 ,0,77.0 ,0,17.8 ,0,59.3 ,0,10.9 ,0,14.1 ,0,13.7 ,0
2004/2/2,10:15,11.3 ,0,72.0 ,0,17.7 ,0,59.4 ,0,11.0 ,0,14.1 ,0,13.7 ,0
2004/2/2,10:30,11.2 ,0,67.0 ,0,17.5 ,0,59.5 ,0,11.1 ,0,14.1 ,0,13.7 ,0
2004/2/2,10:45,11.2 ,0,65.0 ,0,17.5 ,0,59.6 ,0,11.3 ,0,14.1 ,0,13.7 ,0
2004/2/2,11:00,10.9 ,0,64.0 ,0,17.4 ,0,59.5 ,0,11.4 ,0,14.1 ,0,13.7 ,0
2004/2/2,11:15,10.9 ,0,64.0 ,0,17.3 ,0,59.4 ,0,11.5 ,0,14.1 ,0,13.7 ,0
2004/2/2,11:30,11.9 ,0,58.0 ,0,17.2 ,0,59.4 ,0,11.6 ,0,14.1 ,0,13.7 ,0
2004/2/2,11:45,12.3 ,0,52.0 ,0,17.1 ,0,59.2 ,0,11.7 ,0,14.0 ,0,13.7 ,0
2004/2/2,12:00,11.7 ,0,54.0 ,0,17.0 ,0,59.0 ,0,11.9 ,0,14.0 ,0,13.7 ,0
2004/2/2,12:15,11.4 ,0,56.0 ,0,17.0 ,0,59.0 ,0,12.0 ,0,14.0 ,0,13.7 ,0
2004/2/2,12:30,11.5 ,0,57.0 ,0,16.9 ,0,59.0 ,0,12.1 ,0,13.9 ,0,13.8 ,0
2004/2/2,12:45,12.4 ,0,56.0 ,0,16.8 ,0,58.7 ,0,12.2 ,0,13.9 ,0,13.8 ,0
2004/2/2,13:00,12.8 ,0,54.0 ,0,16.7 ,0,58.7 ,0,12.3 ,0,13.9 ,0,13.8 ,0
2004/2/2,13:15,13.6 ,0,50.0 ,0,16.7 ,0,58.6 ,0,12.4 ,0,13.9 ,0,13.9 ,0
2004/2/2,13:30,13.0 ,0,51.0 ,0,16.7 ,0,58.6 ,0,12.5 ,0,13.9 ,0,13.9 ,0
2004/2/2,13:45,13.1 ,0,54.0 ,0,16.6 ,0,58.5 ,0,12.6 ,0,13.8 ,0,13.9 ,0
2004/2/2,14:00,13.6 ,0,53.0 ,0,16.6 ,0,58.3 ,0,12.7 ,0,13.8 ,0,14.0 ,0
2004/2/2,14:15,13.2 ,0,53.0 ,0,16.5 ,0,58.3 ,0,12.8 ,0,13.8 ,0,14.0 ,0
2004/2/2,14:30,13.4 ,0,51.0 ,0,16.5 ,0,58.3 ,0,12.9 ,0,13.8 ,0,14.0 ,0
2004/2/2,14:45,12.9 ,0,50.0 ,0,16.5 ,0,58.3 ,0,13.0 ,0,13.8 ,0,14.1 ,0
2004/2/2,15:00,12.8 ,0,50.0 ,0,16.5 ,0,58.3 ,0,13.1 ,0,13.8 ,0,14.1 ,0
2004/2/2,15:15,12.5 ,0,50.0 ,0,16.4 ,0,58.2 ,0,13.2 ,0,13.8 ,0,14.1 ,0
2004/2/2,15:30,12.3 ,0,49.0 ,0,16.4 ,0,58.0 ,0,13.3 ,0,13.8 ,0,14.1 ,0
2004/2/2,15:45,12.0 ,0,51.0 ,0,16.3 ,0,57.9 ,0,13.4 ,0,13.7 ,0,14.1 ,0
2004/2/2,16:00,11.7 ,0,51.0 ,0,16.3 ,0,57.9 ,0,13.4 ,0,13.7 ,0,14.1 ,0
2004/2/2,16:15,11.7 ,0,53.0 ,0,16.2 ,0,57.9 ,0,13.5 ,0,13.7 ,0,14.1 ,0
2004/2/2,16:30,11.3 ,0,53.0 ,0,16.1 ,0,57.9 ,0,13.6 ,0,13.7 ,0,14.1 ,0
2004/2/2,16:45,11.0 ,0,52.0 ,0,16.1 ,0,57.7 ,0,13.7 ,0,13.6 ,0,14.1 ,0
2004/2/2,17:00,10.7 ,0,51.0 ,0,16.0 ,0,57.6 ,0,13.8 ,0,13.6 ,0,14.1 ,0
2004/2/2,17:15,10.3 ,0,51.0 ,0,15.9 ,0,57.4 ,0,13.9 ,0,13.6 ,0,14.1 ,0
2004/2/2,17:30,9.8 ,0,53.0 ,0,15.9 ,0,57.2 ,0,13.9 ,0,13.6 ,0,14.0 ,0
2004/2/2,17:45,9.6 ,0,53.0 ,0,15.8 ,0,57.1 ,0,14.0 ,0,13.5 ,0,13.9 ,0
2004/2/2,18:00,9.4 ,0,53.0 ,0,15.7 ,0,57.1 ,0,14.1 ,0,13.5 ,0,13.8 ,0
2004/2/2,18:15,9.2 ,0,53.0 ,0,15.6 ,0,57.1 ,0,14.1 ,0,13.4 ,0,13.7 ,0
2004/2/2,18:30,9.0 ,0,54.0 ,0,15.5 ,0,57.1 ,0,14.2 ,0,13.4 ,0,13.6 ,0
2004/2/2,18:45,8.8 ,0,54.0 ,0,15.4 ,0,57.1 ,0,14.3 ,0,13.4 ,0,13.6 ,0
2004/2/2,19:00,8.6 ,0,55.0 ,0,15.3 ,0,57.1 ,0,14.4 ,0,13.3 ,0,13.5 ,0
2004/2/2,19:15,8.7 ,0,55.0 ,0,15.2 ,0,57.0 ,0,14.4 ,0,13.3 ,0,13.4 ,0
2004/2/2,19:30,8.6 ,0,53.0 ,0,15.1 ,0,57.0 ,0,14.5 ,0,13.3 ,0,13.3 ,0
2004/2/2,19:45,8.6 ,0,54.0 ,0,15.0 ,0,57.0 ,0,14.6 ,0,13.2 ,0,13.2 ,0
2004/2/2,20:00,8.5 ,0,55.0 ,0,15.3 ,0,60.5 ,0,11.3 ,0,13.2 ,0,13.2 ,0
2004/2/2,20:15,8.4 ,0,53.0 ,0,16.0 ,0,63.2 ,0,11.4 ,0,13.1 ,0,13.1 ,0
2004/2/2,20:30,8.3 ,0,53.0 ,0,16.6 ,0,64.1 ,0,11.5 ,0,13.1 ,0,13.0 ,0
2004/2/2,20:45,8.4 ,0,54.0 ,0,17.5 ,0,63.7 ,0,11.6 ,0,13.1 ,0,13.0 ,0
2004/2/2,21:00,8.2 ,0,54.0 ,0,18.1 ,0,65.0 ,0,11.7 ,0,13.1 ,0,12.9 ,0
2004/2/2,21:15,8.2 ,0,50.0 ,0,18.7 ,0,66.7 ,0,11.8 ,0,13.0 ,0,12.8 ,0
2004/2/2,21:30,8.1 ,0,49.0 ,0,19.2 ,0,66.1 ,0,11.9 ,0,13.0 ,0,12.8 ,0
2004/2/2,21:45,8.0 ,0,50.0 ,0,19.7 ,0,64.9 ,0,12.0 ,0,13.0 ,0,12.7 ,0
2004/2/2,22:00,7.9 ,0,51.0 ,0,20.1 ,0,64.3 ,0,12.1 ,0,13.0 ,0,12.7 ,0
2004/2/2,22:15,7.8 ,0,51.0 ,0,20.6 ,0,63.0 ,0,12.1 ,0,13.0 ,0,12.6 ,0
2004/2/2,22:30,7.8 ,0,52.0 ,0,20.9 ,0,61.2 ,0,12.2 ,0,13.0 ,0,12.7 ,0
2004/2/2,22:45,7.6 ,0,51.0 ,0,21.1 ,0,58.6 ,0,12.3 ,0,13.1 ,0,12.7 ,0
2004/2/2,23:00,7.5 ,0,51.0 ,0,21.3 ,0,58.7 ,0,12.4 ,0,13.1 ,0,12.7 ,0
2004/2/2,23:15,7.5 ,0,52.0 ,0,21.6 ,0,62.3 ,0,12.5 ,0,13.1 ,0,12.6 ,0
2004/2/2,23:30,7.4 ,0,53.0 ,0,21.8 ,0,63.8 ,0,12.6 ,0,13.1 ,0,12.6 ,0
2004/2/2,23:45,7.4 ,0,56.0 ,0,22.0 ,0,64.5 ,0,12.7 ,0,13.0 ,0,12.5 ,0
2004/2/3,0:00,7.3 ,0,58.0 ,0,22.2 ,0,62.8 ,0,12.7 ,0,13.0 ,0,12.5 ,0
2004/2/3,0:15,7.3 ,0,59.0 ,0,22.2 ,0,60.8 ,0,12.8 ,0,13.0 ,0,12.5 ,0
2004/2/3,0:30,7.4 ,0,59.0 ,0,22.2 ,0,60.1 ,0,12.9 ,0,13.0 ,0,12.4 ,0
2004/2/3,0:45,7.4 ,0,59.0 ,0,22.2 ,0,59.6 ,0,13.0 ,0,13.0 ,0,12.4 ,0
2004/2/3,1:00,7.4 ,0,57.0 ,0,22.1 ,0,59.3 ,0,13.1 ,0,13.0 ,0,12.3 ,0
2004/2/3,1:15,7.5 ,0,56.0 ,0,22.1 ,0,59.4 ,0,13.1 ,0,13.0 ,0,12.3 ,0
2004/2/3,1:30,7.5 ,0,55.0 ,0,21.8 ,0,57.6 ,0,13.2 ,0,13.0 ,0,12.2 ,0
2004/2/3,1:45,7.5 ,0,53.0 ,0,21.3 ,0,55.1 ,0,10.8 ,0,13.0 ,0,12.2 ,0
2004/2/3,2:00,7.5 ,0,52.0 ,0,20.8 ,0,54.4 ,0,10.9 ,0,13.0 ,0,12.2 ,0
2004/2/3,2:15,7.5 ,0,52.0 ,0,20.3 ,0,54.0 ,0,11.0 ,0,13.0 ,0,12.2 ,0
2004/2/3,2:30,7.3 ,0,51.0 ,0,19.9 ,0,53.3 ,0,11.1 ,0,12.9 ,0,12.1 ,0
2004/2/3,2:45,7.3 ,0,51.0 ,0,19.5 ,0,53.2 ,0,11.2 ,0,12.9 ,0,12.1 ,0
2004/2/3,3:00,7.2 ,0,50.0 ,0,19.2 ,0,53.0 ,0,11.3 ,0,12.9 ,0,12.0 ,0
2004/2/3,3:15,7.1 ,0,50.0 ,0,19.0 ,0,53.2 ,0,11.4 ,0,12.8 ,0,12.0 ,0
2004/2/3,3:30,7.1 ,0,50.0 ,0,18.7 ,0,53.4 ,0,11.5 ,0,12.8 ,0,11.9 ,0
2004/2/3,3:45,7.0 ,0,49.0 ,0,18.4 ,0,53.3 ,0,11.6 ,0,12.7 ,0,11.9 ,0
2004/2/3,4:00,6.8 ,0,48.0 ,0,18.1 ,0,53.6 ,0,11.7 ,0,12.7 ,0,11.9 ,0
2004/2/3,4:15,6.8 ,0,47.0 ,0,17.9 ,0,53.3 ,0,11.8 ,0,12.6 ,0,11.8 ,0
2004/2/3,4:30,6.5 ,0,47.0 ,0,17.7 ,0,53.4 ,0,11.9 ,0,12.6 ,0,11.8 ,0
2004/2/3,4:45,6.4 ,0,47.0 ,0,17.4 ,0,53.3 ,0,12.0 ,0,12.5 ,0,11.7 ,0
2004/2/3,5:00,6.2 ,0,47.0 ,0,17.2 ,0,53.3 ,0,12.1 ,0,12.5 ,0,11.6 ,0
2004/2/3,5:15,6.1 ,0,46.0 ,0,17.0 ,0,53.2 ,0,12.1 ,0,12.4 ,0,11.6 ,0
2004/2/3,5:30,6.0 ,0,48.0 ,0,16.8 ,0,53.4 ,0,12.2 ,0,12.4 ,0,11.5 ,0
2004/2/3,5:45,5.9 ,0,50.0 ,0,16.6 ,0,53.2 ,0,12.3 ,0,12.3 ,0,11.5 ,0
2004/2/3,6:00,5.8 ,0,51.0 ,0,16.4 ,0,53.2 ,0,12.4 ,0,12.3 ,0,11.4 ,0
2004/2/3,6:15,5.7 ,0,52.0 ,0,16.2 ,0,53.2 ,0,12.4 ,0,12.2 ,0,11.3 ,0
2004/2/3,6:30,5.6 ,0,53.0 ,0,16.0 ,0,53.2 ,0,12.5 ,0,12.1 ,0,11.3 ,0
2004/2/3,6:45,5.6 ,0,53.0 ,0,15.8 ,0,53.1 ,0,12.6 ,0,12.1 ,0,11.2 ,0
2004/2/3,7:00,5.4 ,0,52.0 ,0,15.6 ,0,53.1 ,0,12.7 ,0,12.0 ,0,11.1 ,0
2004/2/3,7:15,5.3 ,0,53.0 ,0,15.4 ,0,53.2 ,0,12.7 ,0,11.9 ,0,11.1 ,0
2004/2/3,7:30,5.3 ,0,53.0 ,0,14.9 ,0,51.5 ,0,10.1 ,0,11.9 ,0,11.2 ,0
2004/2/3,7:45,5.3 ,0,53.0 ,0,14.8 ,0,52.4 ,0,10.2 ,0,12.0 ,0,11.2 ,0
2004/2/3,8:00,5.3 ,0,53.0 ,0,14.5 ,0,52.8 ,0,9.9 ,0,12.0 ,0,11.3 ,0
2004/2/3,8:15,5.8 ,0,51.0 ,0,14.2 ,0,53.0 ,0,10.0 ,0,12.0 ,0,11.3 ,0
2004/2/3,8:30,6.3 ,0,48.0 ,0,13.9 ,0,53.1 ,0,10.1 ,0,12.0 ,0,11.4 ,0
2004/2/3,8:45,11.2 ,0,37.0 ,0,13.7 ,0,52.9 ,0,10.2 ,0,11.9 ,0,11.5 ,0
2004/2/3,9:00,11.8 ,0,33.0 ,0,13.5 ,0,52.9 ,0,10.3 ,0,11.9 ,0,11.5 ,0
2004/2/3,9:15,9.9 ,0,32.0 ,0,13.4 ,0,53.0 ,0,10.4 ,0,11.9 ,0,11.6 ,0
2004/2/3,9:30,10.4 ,0,34.0 ,0,13.3 ,0,52.9 ,0,10.5 ,0,11.9 ,0,11.6 ,0
2004/2/3,9:45,11.4 ,0,31.0 ,0,13.2 ,0,52.7 ,0,10.6 ,0,11.9 ,0,11.7 ,0
2004/2/3,10:00,10.8 ,0,32.0 ,0,13.1 ,0,52.7 ,0,10.7 ,0,11.8 ,0,11.7 ,0
2004/2/3,10:15,11.1 ,0,34.0 ,0,13.0 ,0,52.2 ,0,10.8 ,0,11.8 ,0,11.8 ,0
2004/2/3,10:30,10.2 ,0,35.0 ,0,13.0 ,0,52.1 ,0,10.9 ,0,11.8 ,0,11.8 ,0
2004/2/3,10:45,10.5 ,0,37.0 ,0,12.9 ,0,52.0 ,0,10.9 ,0,11.8 ,0,11.9 ,0
2004/2/3,11:00,10.6 ,0,36.0 ,0,12.8 ,0,51.8 ,0,11.0 ,0,11.7 ,0,11.9 ,0
2004/2/3,11:15,11.2 ,0,31.0 ,0,12.8 ,0,52.0 ,0,11.1 ,0,11.7 ,0,12.0 ,0
2004/2/3,11:30,9.8 ,0,35.0 ,0,12.7 ,0,51.5 ,0,11.2 ,0,11.7 ,0,12.0 ,0
2004/2/3,11:45,9.4 ,0,36.0 ,0,12.7 ,0,51.2 ,0,11.3 ,0,11.6 ,0,12.0 ,0
2004/2/3,12:00,9.8 ,0,35.0 ,0,12.6 ,0,51.1 ,0,11.4 ,0,11.6 ,0,12.1 ,0
2004/2/3,12:15,9.2 ,0,35.0 ,0,12.6 ,0,50.3 ,0,11.5 ,0,11.6 ,0,12.1 ,0
2004/2/3,12:30,8.9 ,0,35.0 ,0,12.5 ,0,50.1 ,0,11.6 ,0,11.6 ,0,12.2 ,0
2004/2/3,12:45,9.0 ,0,36.0 ,0,12.5 ,0,49.8 ,0,11.7 ,0,11.5 ,0,12.2 ,0
2004/2/3,13:00,8.2 ,0,39.0 ,0,12.4 ,0,49.6 ,0,11.8 ,0,11.5 ,0,12.2 ,0
2004/2/3,13:15,7.8 ,0,41.0 ,0,12.4 ,0,49.6 ,0,11.8 ,0,11.5 ,0,12.1 ,0
2004/2/3,13:30,7.5 ,0,42.0 ,0,12.3 ,0,49.6 ,0,11.9 ,0,11.4 ,0,12.1 ,0
2004/2/3,13:45,7.7 ,0,41.0 ,0,12.3 ,0,49.6 ,0,12.0 ,0,11.4 ,0,12.0 ,0
2004/2/3,14:00,7.6 ,0,39.0 ,0,12.2 ,0,49.4 ,0,12.0 ,0,11.4 ,0,12.0 ,0
2004/2/3,14:15,7.5 ,0,39.0 ,0,12.1 ,0,49.3 ,0,12.1 ,0,11.3 ,0,12.0 ,0
2004/2/3,14:30,7.3 ,0,43.0 ,0,12.1 ,0,49.2 ,0,12.2 ,0,11.3 ,0,11.9 ,0
2004/2/3,14:45,7.7 ,0,39.0 ,0,12.0 ,0,49.3 ,0,12.3 ,0,11.2 ,0,11.9 ,0
2004/2/3,15:00,7.5 ,0,42.0 ,0,12.0 ,0,49.1 ,0,12.3 ,0,11.2 ,0,11.9 ,0
2004/2/3,15:15,7.5 ,0,46.0 ,0,11.9 ,0,49.0 ,0,12.4 ,0,11.2 ,0,11.9 ,0
2004/2/3,15:30,6.9 ,0,48.0 ,0,11.9 ,0,49.0 ,0,12.5 ,0,11.1 ,0,11.9 ,0
2004/2/3,15:45,6.8 ,0,50.0 ,0,11.8 ,0,49.2 ,0,12.5 ,0,11.1 ,0,11.9 ,0
2004/2/3,16:00,6.6 ,0,49.0 ,0,11.8 ,0,49.3 ,0,12.6 ,0,11.1 ,0,11.8 ,0
2004/2/3,16:15,6.3 ,0,49.0 ,0,11.7 ,0,49.4 ,0,12.7 ,0,11.0 ,0,11.8 ,0
2004/2/3,16:30,6.2 ,0,51.0 ,0,11.6 ,0,49.4 ,0,12.7 ,0,11.0 ,0,11.7 ,0
2004/2/3,16:45,6.0 ,0,52.0 ,0,11.6 ,0,49.4 ,0,12.8 ,0,10.9 ,0,11.7 ,0
2004/2/3,17:00,5.8 ,0,52.0 ,0,11.5 ,0,49.5 ,0,12.8 ,0,10.9 ,0,11.6 ,0
2004/2/3,17:15,5.7 ,0,50.0 ,0,11.4 ,0,49.5 ,0,12.9 ,0,10.8 ,0,11.5 ,0
2004/2/3,17:30,5.5 ,0,47.0 ,0,11.3 ,0,49.5 ,0,12.9 ,0,10.8 ,0,11.3 ,0
2004/2/3,17:45,5.3 ,0,46.0 ,0,11.2 ,0,49.5 ,0,13.0 ,0,10.7 ,0,11.2 ,0
2004/2/3,18:00,5.1 ,0,50.0 ,0,11.2 ,0,49.4 ,0,13.0 ,0,10.7 ,0,11.0 ,0
2004/2/3,18:15,4.9 ,0,52.0 ,0,11.1 ,0,49.4 ,0,13.1 ,0,10.6 ,0,10.9 ,0
2004/2/3,18:30,4.8 ,0,53.0 ,0,11.0 ,0,49.5 ,0,13.1 ,0,10.6 ,0,10.8 ,0
2004/2/3,18:45,4.8 ,0,50.0 ,0,10.9 ,0,49.5 ,0,13.2 ,0,10.5 ,0,10.7 ,0
2004/2/3,19:00,4.8 ,0,48.0 ,0,10.8 ,0,49.5 ,0,13.2 ,0,10.5 ,0,10.6 ,0
2004/2/3,19:15,4.5 ,0,46.0 ,0,10.7 ,0,49.5 ,0,13.2 ,0,10.4 ,0,10.4 ,0
2004/2/3,19:30,4.4 ,0,44.0 ,0,10.6 ,0,49.3 ,0,13.3 ,0,10.4 ,0,10.3 ,0
2004/2/3,19:45,4.3 ,0,42.0 ,0,10.5 ,0,49.2 ,0,13.3 ,0,10.3 ,0,10.2 ,0
2004/2/3,20:00,4.3 ,0,43.0 ,0,10.4 ,0,49.0 ,0,13.4 ,0,10.2 ,0,10.1 ,0
2004/2/3,20:15,4.3 ,0,40.0 ,0,10.3 ,0,49.0 ,0,13.4 ,0,10.2 ,0,10.0 ,0
2004/2/3,20:30,4.3 ,0,41.0 ,0,10.3 ,0,49.0 ,0,13.4 ,0,10.1 ,0,9.9 ,0
2004/2/3,20:45,4.3 ,0,43.0 ,0,10.2 ,0,48.9 ,0,13.5 ,0,10.1 ,0,9.8 ,0
2004/2/3,21:00,4.4 ,0,44.0 ,0,10.1 ,0,49.0 ,0,13.5 ,0,10.0 ,0,9.7 ,0
2004/2/3,21:15,4.4 ,0,43.0 ,0,10.0 ,0,49.0 ,0,13.5 ,0,10.0 ,0,9.6 ,0
2004/2/3,21:30,4.4 ,0,42.0 ,0,9.9 ,0,49.0 ,0,13.5 ,0,9.9 ,0,9.6 ,0
2004/2/3,21:45,4.4 ,0,43.0 ,0,9.9 ,0,49.0 ,0,13.6 ,0,9.9 ,0,9.5 ,0
2004/2/3,22:00,4.4 ,0,44.0 ,0,9.8 ,0,49.0 ,0,13.6 ,0,9.8 ,0,9.4 ,0
2004/2/3,22:15,4.4 ,0,42.0 ,0,9.8 ,0,49.1 ,0,13.6 ,0,9.8 ,0,9.4 ,0
2004/2/3,22:30,4.4 ,0,41.0 ,0,9.7 ,0,49.1 ,0,13.7 ,0,9.7 ,0,9.3 ,0
2004/2/3,22:45,4.4 ,0,43.0 ,0,9.7 ,0,49.0 ,0,13.7 ,0,9.7 ,0,9.3 ,0
2004/2/3,23:00,4.4 ,0,42.0 ,0,9.6 ,0,49.1 ,0,13.7 ,0,9.7 ,0,9.2 ,0
2004/2/3,23:15,4.4 ,0,42.0 ,0,9.6 ,0,49.1 ,0,13.7 ,0,9.6 ,0,9.1 ,0
2004/2/3,23:30,4.4 ,0,42.0 ,0,9.5 ,0,49.1 ,0,13.7 ,0,9.6 ,0,9.1 ,0
2004/2/3,23:45,4.4 ,0,41.0 ,0,9.5 ,0,49.1 ,0,13.8 ,0,9.5 ,0,9.0 ,0
2004/2/4,0:00,4.3 ,0,44.0 ,0,9.4 ,0,49.2 ,0,13.8 ,0,9.5 ,0,9.0 ,0
2004/2/4,0:15,4.2 ,0,47.0 ,0,9.4 ,0,49.2 ,0,13.8 ,0,9.4 ,0,8.9 ,0
2004/2/4,0:30,4.2 ,0,47.0 ,0,9.3 ,0,49.4 ,0,13.8 ,0,9.4 ,0,8.9 ,0
2004/2/4,0:45,4.1 ,0,45.0 ,0,9.8 ,0,58.7 ,0,10.1 ,0,9.4 ,0,8.8 ,0
2004/2/4,1:00,4.1 ,0,46.0 ,0,10.7 ,0,62.4 ,0,10.1 ,0,9.3 ,0,8.8 ,0
2004/2/4,1:15,4.1 ,0,45.0 ,0,11.6 ,0,63.7 ,0,10.2 ,0,9.3 ,0,8.7 ,0
2004/2/4,1:30,3.9 ,0,47.0 ,0,12.3 ,0,62.9 ,0,9.1 ,0,9.3 ,0,8.7 ,0
2004/2/4,1:45,3.8 ,0,45.0 ,0,12.9 ,0,61.5 ,0,9.1 ,0,9.2 ,0,8.7 ,0
2004/2/4,2:00,3.7 ,0,48.0 ,0,12.7 ,0,52.7 ,0,9.3 ,0,9.3 ,0,8.8 ,0
2004/2/4,2:15,3.6 ,0,49.0 ,0,12.4 ,0,51.2 ,0,9.4 ,0,9.3 ,0,8.8 ,0
2004/2/4,2:30,3.5 ,0,50.0 ,0,12.1 ,0,50.4 ,0,9.4 ,0,9.3 ,0,8.8 ,0
2004/2/4,2:45,3.5 ,0,50.0 ,0,11.9 ,0,49.7 ,0,9.5 ,0,9.3 ,0,8.8 ,0
2004/2/4,3:00,3.5 ,0,51.0 ,0,11.6 ,0,49.5 ,0,9.6 ,0,9.3 ,0,8.7 ,0
2004/2/4,3:15,3.7 ,0,50.0 ,0,11.4 ,0,49.4 ,0,9.7 ,0,9.2 ,0,8.7 ,0
2004/2/4,3:30,3.7 ,0,51.0 ,0,11.2 ,0,49.3 ,0,9.8 ,0,9.2 ,0,8.7 ,0
2004/2/4,3:45,3.8 ,0,48.0 ,0,11.0 ,0,49.3 ,0,9.8 ,0,9.2 ,0,8.6 ,0
2004/2/4,4:00,3.8 ,0,51.0 ,0,10.9 ,0,49.3 ,0,9.9 ,0,9.1 ,0,8.6 ,0
2004/2/4,4:15,3.8 ,0,54.0 ,0,10.7 ,0,49.4 ,0,10.0 ,0,9.1 ,0,8.5 ,0
2004/2/4,4:30,3.8 ,0,54.0 ,0,10.6 ,0,49.4 ,0,10.0 ,0,9.1 ,0,8.5 ,0
2004/2/4,4:45,3.8 ,0,56.0 ,0,10.4 ,0,49.5 ,0,10.1 ,0,9.0 ,0,8.5 ,0
2004/2/4,5:00,3.8 ,0,57.0 ,0,10.3 ,0,49.8 ,0,10.2 ,0,9.0 ,0,8.4 ,0
2004/2/4,5:15,3.8 ,0,53.0 ,0,10.2 ,0,50.0 ,0,10.3 ,0,9.0 ,0,8.4 ,0
2004/2/4,5:30,3.8 ,0,55.0 ,0,10.1 ,0,50.0 ,0,10.4 ,0,8.9 ,0,8.4 ,0
2004/2/4,5:45,3.8 ,0,57.0 ,0,10.0 ,0,50.0 ,0,10.5 ,0,8.9 ,0,8.3 ,0
2004/2/4,6:00,3.7 ,0,55.0 ,0,9.9 ,0,50.2 ,0,10.5 ,0,8.9 ,0,8.3 ,0
2004/2/4,6:15,3.6 ,0,55.0 ,0,9.8 ,0,50.2 ,0,10.6 ,0,8.8 ,0,8.2 ,0
2004/2/4,6:30,3.6 ,0,57.0 ,0,9.7 ,0,50.4 ,0,10.7 ,0,8.8 ,0,8.2 ,0
2004/2/4,6:45,3.5 ,0,60.0 ,0,9.6 ,0,50.5 ,0,9.7 ,0,8.8 ,0,8.2 ,0
2004/2/4,7:00,3.5 ,0,62.0 ,0,9.6 ,0,51.0 ,0,9.8 ,0,8.8 ,0,8.2 ,0
2004/2/4,7:15,3.6 ,0,62.0 ,0,9.5 ,0,51.8 ,0,9.2 ,0,8.8 ,0,8.2 ,0
2004/2/4,7:30,3.6 ,0,54.0 ,0,9.6 ,0,58.5 ,0,9.3 ,0,8.8 ,0,8.2 ,0
2004/2/4,7:45,3.7 ,0,58.0 ,0,10.5 ,0,61.9 ,0,9.3 ,0,8.9 ,0,8.2 ,0
2004/2/4,8:00,3.8 ,0,57.0 ,0,11.2 ,0,62.6 ,0,9.3 ,0,8.9 ,0,8.2 ,0
2004/2/4,8:15,3.9 ,0,58.0 ,0,11.9 ,0,62.5 ,0,9.4 ,0,8.9 ,0,8.2 ,0
2004/2/4,8:30,3.9 ,0,59.0 ,0,12.4 ,0,61.3 ,0,9.5 ,0,8.9 ,0,8.3 ,0
2004/2/4,8:45,4.1 ,0,60.0 ,0,12.9 ,0,61.0 ,0,9.6 ,0,9.0 ,0,8.3 ,0
2004/2/4,9:00,3.9 ,0,63.0 ,0,13.4 ,0,60.4 ,0,9.7 ,0,9.0 ,0,8.4 ,0
2004/2/4,9:15,4.3 ,0,56.0 ,0,13.9 ,0,60.1 ,0,9.7 ,0,9.0 ,0,8.5 ,0
2004/2/4,9:30,5.5 ,0,49.0 ,0,14.1 ,0,56.9 ,0,9.8 ,0,9.1 ,0,8.5 ,0
2004/2/4,9:45,7.5 ,0,41.0 ,0,13.9 ,0,55.2 ,0,9.9 ,0,9.1 ,0,8.6 ,0
2004/2/4,10:00,5.5 ,0,54.0 ,0,13.8 ,0,54.1 ,0,9.9 ,0,9.1 ,0,8.6 ,0
2004/2/4,10:15,5.3 ,0,61.0 ,0,13.5 ,0,53.3 ,0,9.3 ,0,9.1 ,0,8.6 ,0
2004/2/4,10:30,8.6 ,0,50.0 ,0,13.5 ,0,53.0 ,0,9.3 ,0,9.1 ,0,8.7 ,0
2004/2/4,10:45,9.7 ,0,36.0 ,0,13.4 ,0,53.0 ,0,9.4 ,0,9.1 ,0,8.7 ,0
2004/2/4,11:00,9.3 ,0,38.0 ,0,13.3 ,0,53.0 ,0,9.5 ,0,9.1 ,0,8.8 ,0
2004/2/4,11:15,7.6 ,0,43.0 ,0,13.2 ,0,53.1 ,0,9.5 ,0,9.1 ,0,8.8 ,0
2004/2/4,11:30,7.0 ,0,45.0 ,0,13.1 ,0,51.8 ,0,9.6 ,0,9.2 ,0,8.8 ,0
2004/2/4,11:45,6.7 ,0,47.0 ,0,12.9 ,0,51.2 ,0,9.7 ,0,9.2 ,0,8.9 ,0
2004/2/4,12:00,7.5 ,0,45.0 ,0,12.7 ,0,50.6 ,0,8.8 ,0,9.3 ,0,9.0 ,0
2004/2/4,12:15,7.8 ,0,45.0 ,0,12.5 ,0,50.8 ,0,8.8 ,0,9.4 ,0,9.1 ,0